Tracking 32968 objects as of 17-Jan-2026
HD Live streaming from Space Station
objects crossing your sky now

CZ-2C DEB

Track CZ-2C DEB now!
10-day predictions


NORAD ID: 40266
Int'l Code: 2014-059F
Perigee: 673.4 km
Apogee: 904.7 km
Inclination: 98.4 °
Period: 100.5 minutes
Semi major axis: 7160 km
RCS: Unknown
Launch date: September 28, 2014
Source: People's Republic of China (PRC)
Launch site: Jiuquan Satellite Launch Center, China (JSC)

Note: This is SATELLITE DEBRIS
Your satellite tracking list
Your tracking list is empty




NASA's NSSDC Master Catalog

Two Line Element Set (TLE):
1 40266U 14059F   26017.46229411  .00002816  00000-0  90575-3 0  9998
2 40266  98.3612 291.4970 0161520 309.2397  49.4545 14.32937904587080
Source of the keplerian elements: AFSPC